Location: Conover
(35.7170°N, 81.2250°W)
Time: 21:22:37
(UTC-04:00)

Daily predictions for brighter satellites

Satellite Brightness Start Highest point End
(mag) Time Altitude Azimuth Time Altitude Azimuth Time Altitude Azimuth
Cosmos 1777 Rocket 4.2 20:12:40 10° NNW 20:17:56 82° WSW 20:23:12 10° SSE
Hubble Space Telescope 3.2 20:19:10 10° SW 20:21:16 14° SSW 20:23:21 10° S
SJ-6B 3.6 20:17:43 10° S 20:21:21 52° W 20:25:01 10° NNW
FengYun 1-2 T 4.4 20:17:09 10° SSE 20:22:37 54° ENE 20:28:04 10° N
Cosmos 2123 Rocket 4.1 20:18:42 10° N 20:24:45 54° E 20:30:46 10° SSE
Resurs 1-3 3.7 20:21:00 10° SSE 20:25:18 60° ENE 20:29:38 10° N
Cosmos 2297 Rocket 2.6 20:24:19 10° N 20:29:46 46° ENE 20:35:10 10° SE
CZ-4B DEB 3.2 20:27:43 10° SSE 20:30:50 42° ENE 20:33:58 10° N
Okean 2 3.4 20:27:07 10° N 20:31:18 87° E 20:35:25 10° S
Cosmos 2082 3.7 20:26:01 10° NNW 20:31:36 64° ENE 20:37:10 10° SSE
Helios 1B rocket 3.2 20:28:42 10° N 20:32:45 59° WNW 20:36:47 10° SSW
SL-24 R/B - RUBIN 2 4.3 20:28:03 10° SSW 20:33:45 81° ESE 20:40:09 10° NNE
Meteor 1-5 Rocket 4.3 20:28:46 10° SSW 20:34:05 79° W 20:39:36 10° N
Meteor 1-12 Rocket 4.4 20:28:40 10° S 20:34:13 54° E 20:39:54 10° NNE
Spot 2 Rocket 3.8 20:32:48 10° S 20:37:53 74° WSW 20:42:58 10° NNW
Iridium 4 Rocket 4.0 20:37:49 10° NNE 20:42:09 32° E 20:46:10 10° SE
Cosmos 1934 Rocket 4.3 20:37:17 10° SSW 20:43:23 74° W 20:49:38 10° N
Cosmos 1346 Rocket 3.0 20:41:06 10° NNW 20:45:03 75° W 20:49:03 10° S
Lacrosse 5 2.9 20:45:54 10° NNW 20:50:27 32° NE 20:53:46 16° E
Resurs 01 Rocket 2.7 20:47:47 10° S 20:52:03 48° W 20:56:21 10° NNW
Cosmos 1153 Rocket 4.5 20:47:14 10° S 20:53:19 62° E 20:59:22 10° NNE
Cosmos 2298 Rocket 4.3 20:50:17 10° N 20:55:25 48° ENE 20:59:37 15° SE
Cosmos 1743 3.7 20:59:22 21° SE 21:00:52 27° E 21:04:12 10° NNE
Cosmos 1697 Rocket 2.6 20:55:33 10° SSW 21:01:11 76° ESE 21:06:49 10° NNE
Cosmos 1066 Rocket 4.4 21:03:21 10° N 21:08:55 52° ENE 21:13:22 16° SSE
Cosmos 1802 Rocket 4.4 21:04:35 10° SSE 21:10:29 41° E 21:16:26 10° NNE
ERS-1 Rocket 3.6 21:08:34 23° ESE 21:10:57 36° ENE 21:15:31 10° N
Cosmos 1461 4.5 21:08:00 10° NW 21:11:32 30° WSW 21:14:59 10° S
SL-16 R/B 4.0 21:16:08 14° ENE 21:16:08 14° ENE 21:17:21 10° ENE
RESURS DK-1 2.8 21:13:47 10° N 21:17:45 43° ENE 21:18:51 34° ESE
Cosmos 2016 Rocket 4.4 21:14:03 18° SSE 21:18:04 38° E 21:23:42 10° NNE
CZ-4 DEB 3.4 21:19:01 37° ENE 21:19:01 37° ENE 21:21:47 10° N
Cosmos 2150 Rocket 3.9 21:15:36 10° NNW 21:20:46 72° ENE 21:23:51 25° SSE
OTV 4 2.2 21:20:18 10° W 21:22:38 21° SSW 21:22:59 20° SSW
Cosmos 1763 Rocket 3.5 21:18:06 10° S 21:23:02 52° ESE 21:27:58 10° NNE
USA 186 2.4 21:22:40 19° S 21:24:34 49° W 21:27:23 10° NNW
ALOS 3.1 21:20:16 10° S 21:24:46 49° W 21:29:18 10° NNW
Cosmos 1980 Rocket 2.1 21:19:31 10° SSW 21:25:09 73° ESE 21:30:50 10° NNE
OAO 2 Rocket 3.2 21:21:08 10° W 21:26:08 82° S 21:28:13 36° ESE
Cosmos 1825 Rocket 4.0 21:22:12 10° N 21:26:22 40° E 21:26:56 39° E
H-2A R/B 3.7 21:24:20 10° S 21:28:04 47° W 21:31:53 10° NNW
Cosmos 2173 Rocket 3.9 21:23:39 10° S 21:29:57 70° E 21:36:15 10° NNE
Cosmos 1898 Rocket 3.5 21:28:40 10° NNW 21:33:58 80° WSW 21:37:05 25° S
Cosmos 2098 Rocket 4.4 21:31:59 29° SE 21:34:34 40° E 21:40:02 10° NNE
H-2A R/B 3.0 21:37:53 29° NE 21:37:53 29° NE 21:40:55 10° N
Cosmos 1953 Rocket 4.1 21:33:47 10° N 21:37:48 40° ENE 21:37:48 40° ENE
Cosmos 2084 3.9 21:37:03 10° NW 21:41:06 55° WSW 21:42:27 37° S
DELTA 2 R/B (1) 3.7 21:36:41 10° WNW 21:42:11 64° SSW 21:43:49 44° SE
Cosmos 2100 Rocket 4.1 21:40:38 10° S 21:46:55 78° W 21:53:11 10° N
Cosmos 841 Rocket 3.3 21:42:07 10° SSW 21:47:21 79° ESE 21:52:35 10° NNE
YAOGAN 11 4.2 21:48:04 44° S 21:49:29 78° WSW 21:53:57 10° NNW
CZ-3C R/B 3.9 21:13:21 10° W 21:50:56 36° SSW 21:55:35 24° SSE
Tiangong 1 2.5 21:48:05 10° NW 21:50:14 35° NNW 21:50:14 35° NNW
Cosmos 2263 Rocket 4.0 21:49:51 10° NNE 21:52:51 16° NE 21:52:51 16° NE
Lacrosse 5 rocket 3.4 21:51:04 10° W 21:53:18 16° WSW 21:54:21 14° SW
Cosmos 1758 Rocket 4.1 21:52:12 10° N 21:55:33 45° NE 21:55:33 45° NE
Cosmos 2322 Rocket 2.7 22:00:47 41° ENE 22:00:47 41° ENE 22:04:44 10° NNE
ASTEX 1 3.6 21:54:39 10° NNE 21:58:58 53° ENE 21:58:58 53° ENE
Cosmos 2061 Rocket 4.3 21:54:02 10° SSW 22:00:18 67° W 22:06:32 10° N
Tsikada Rocket 4.3 21:55:59 10° N 22:02:10 48° E 22:02:25 47° E
Cosmos 1340 3.4 22:00:57 10° NNW 22:03:55 51° NNW 22:03:55 51° NNW
deb Chang Zheng 4 3.7 22:01:40 10° NNE 22:05:36 69° NNE 22:05:36 69° NNE
Meteor 1-15 Rocket 4.2 22:08:01 65° ESE 22:08:11 65° E 22:13:59 10° NNE
Meteor 2-9 Rocket 4.0 22:12:18 79° SE 22:12:31 81° E 22:17:57 10° N
MetOp-A 4.2 22:12:56 62° NE 22:12:56 62° NE 22:17:54 10° N
Cosmos 2297 Rocket 4.4 22:09:19 10° NW 22:13:24 21° W 22:17:28 10° SSW
Cosmos 1725 Rocket 3.8 22:18:11 67° SSE 22:19:04 83° E 22:25:20 10° N
Cosmos 2058 Rocket 3.8 22:22:24 51° NNW 22:22:24 51° NNW 22:25:56 10° N
Cosmos 1939 Rocket 4.2 22:24:09 38° W 22:24:09 38° W 22:27:51 10° NNW
Cosmos 2227 4.2 22:18:58 10° NNW 22:24:43 76° WSW 22:24:54 75° SW
Milstar 3 Cent rocket 4.2 22:06:00 10° W 22:26:44 56° SSW 22:30:15 45° SSE
Envisat 3.6 22:26:39 47° WSW 22:27:14 49° W 22:32:10 10° NNW
Lacrosse 5 3.0 22:28:46 10° WNW 22:32:58 36° WSW 22:32:58 36° WSW
SPOT 5 3.6 22:38:12 53° NW 22:38:12 53° NW 22:42:04 10° NNW
BREEZE-M DEB (TANK) 4.4 22:34:25 10° NW 22:35:26 23° NNW 22:35:26 23° NNW
Cosmos 2233 Rocket 4.3 22:43:02 55° NNE 22:43:02 55° NNE 22:47:50 10° N
H-2A R/B 3.9 22:56:30 22° NNE 22:56:30 22° NNE 22:58:17 10° N
ARGOS 4.1 22:57:44 43° NNW 22:57:44 43° NNW 23:01:19 10° NNW
Terra 4.1 22:59:16 17° NNE 22:59:16 17° NNE 23:00:25 10° N
SL-16 R/B 3.0 22:57:52 49° NW 22:57:52 49° NW 23:02:44 10° NNE
BREEZE-M DEB (TANK) 4.5 22:48:34 10° WNW 23:13:51 62° NNE 23:14:37 60° NE
USA 215 4.2 23:21:34 39° NNE 23:21:34 39° NNE 23:26:48 10° NNW
BREEZE-M DEB (TANK) 4.4 23:20:59 10° NW 23:31:51 51° NNW 23:31:51 51° NNW
Cosmos 2263 Rocket 4.0 23:32:01 10° NNW 23:34:32 28° NNW 23:34:32 28° NNW
Cosmos 2322 Rocket 4.4 23:42:28 19° WNW 23:43:38 20° WNW 23:47:43 10° N
